Voltar ao catálogo

STARLINK-31769

AtivoComunicaçõesVLEO
NORAD 59617·PAYLOAD·🇺🇸 United States

Lançado Apr 28, 2024 de Cape Canaveral Space Force Station

Loading…

Próximas Passagens (próximas 24 horas)

TLE

AtualizadoSource: CelesTrak SupGP

Época: Sep 15, 2026, 02:23 UTC

1 59617C 24080S   26258.09979167 -.00020771  00000+0 -75214-3 0  2581
2 59617  43.0045  48.5538 0002024 269.0674 196.0927 15.27595850    13

Acompanhe STARLINK-31769 em tempo real com AllMySat

Download on the App Store